Location: Unspecified
(54.1780°N, 0.0000°E)
Time: 15:13:34
(UTC+00:00)

Altair - Pass Details

Date: 24 June 2019
Orbit: 1501 x 1683 km, 47.2° (Epoch: 20 July)

Event Time Altitude Azimuth Distance (km) Brightness Sun altitude
Rises 23:47:13 0° 276° (W) 4,793 10.2 -12.4°
Reaches altitude 10° 23:50:24 10° 271° (W) 3,832 9.6 -12.4°
Maximum altitude 23:59:36 48° 202° (SSW) 2,065 7.8 -12.4°
Drops below altitude 10° 00:09:04 10° 132° (SE) 3,931 9.3 -12.4°
Sets 00:12:23 0° 127° (SE) 4,926 9.8 -12.4°
